Find Starlink 32726

NORAD ID: 62446 Int'l Des: 2024-251 Owner: SPXS Country: US Constellation: starlink operational
LEOCIRCULAR

当前视图

正在加载3D地球...

About Starlink 32726

Starlink 32726 (NORAD 62446) is a starlink constellation satellite (v2 mini) launched Dec 29, 2024 by SPXS of US. It operates in LEO, CIRCULAR orbit with a mass of 730.00 kg.

关于 Starlink 32726

正在加载描述...

即将过境

Passes for default location (London). Set your location on the main map for personalized predictions.

高度历史

Loading altitude history...

两行轨道根数

1 62446U 24251Q 26167.46905455 .00014125 00000-0 48810-3 0 9993
2 62446 53.1581 236.3626 0001113 79.3855 280.7271 15.30201456 82765
Epoch: Jun 16, 2026 • Age: 16 hours

当前状态

高度 476.6 km
速度 7.63 km/s
星下点 31.15°N, 67.91°E
发射日期 Dec 29, 2024
运行时间 1.4 years
类型 internet

技术详情

分类 Payload
质量 730.00 kg
干质量 700.00 kg
总质量 730.00 kg
长度 0.30 m
直径 4.10 m
跨度 29.00 m
形状 Box + pan
制造商 SPXS
平台类型 Starlink V2M
阶段状态 In Orbit
所有者/国家 SPXS/US

Most Searched